This is the latest recevied weather packets stored in our database for station/object K0SNA. If no packets are shown the sender has not sent any weather packets the latest 10 day(s).
| Time | Temp. | Humidity | Pressure | Rain* | Wind** | Luminosity | Snow |
|---|---|---|---|---|---|---|---|
| 1787762443 | 23.89° C | 68% | 1015.6 hPa | 0 mm | - | 135 W/m² | - |
| 1787762140 | 23.89° C | 67% | 1015.6 hPa | 0 mm | - | 281 W/m² | - |
| 1787761835 | 23.33° C | 68% | 1015.3 hPa | 0 mm | - | 573 W/m² | - |
| 1787761531 | 22.22° C | 72% | 1015.6 hPa | 0 mm | - | 556 W/m² | - |
| 1787761226 | 22.22° C | 72% | 1015.6 hPa | 0 mm | - | 140 W/m² | - |
| 1787760925 | 22.22° C | 72% | 1015.4 hPa | 0 mm | - | 88 W/m² | - |
| 1787760623 | 22.78° C | 72% | 1015.4 hPa | 0 mm | - | 89 W/m² | - |
| 1787760322 | 22.78° C | 71% | 1015.3 hPa | 0 mm | - | 186 W/m² | - |
| 1787760021 | 22.78° C | 71% | 1015.3 hPa | 0 mm | - | 138 W/m² | - |
| 1787759715 | 22.78° C | 71% | 1015.2 hPa | 0 mm | - | 396 W/m² | - |
| 1787759411 | 22.78° C | 71% | 1015.4 hPa | 0 mm | - | 425 W/m² | - |
| 1787759106 | 22.78° C | 72% | 1015.4 hPa | 0 mm | - | 477 W/m² | - |
| 1787758805 | 22.78° C | 72% | 1015.2 hPa | 0 mm | - | 487 W/m² | - |
| 1787758501 | 22.78° C | 72% | 1015.5 hPa | 0 mm | - | 529 W/m² | - |
| 1787758199 | 22.22° C | 74% | 1015.3 hPa | 0 mm | - | 484 W/m² | - |
| 1787757894 | 21.67° C | 75% | 1015.3 hPa | 0 mm | - | 231 W/m² | - |
| 1787757589 | 21.67° C | 75% | 1015.1 hPa | 0 mm | - | 239 W/m² | - |
| 1787757284 | 21.67° C | 76% | 1015 hPa | 0 mm | - | 256 W/m² | - |
| 1787756983 | 21.11° C | 76% | 1015.2 hPa | 0 mm | - | 193 W/m² | - |
| 1787756678 | 21.11° C | 76% | 1015.4 hPa | 0 mm | - | 201 W/m² | - |
| 1787756378 | 21.11° C | 77% | 1015.2 hPa | 0 mm | - | 196 W/m² | - |
| 1787756073 | 21.11° C | 77% | 1015.3 hPa | 0 mm | - | 175 W/m² | - |
| 1787755767 | 20.56° C | 77% | 1015.2 hPa | 0 mm | - | 144 W/m² | - |
| 1787755462 | 20.56° C | 77% | 1015.3 hPa | 0 mm | - | 146 W/m² | - |
| 1787755162 | 20.56° C | 77% | 1015.2 hPa | 0 mm | - | 141 W/m² | - |
* Rain latest hour (hover to see other rain measurements)
** Current wind speed in m/s (hover to see current wind gust speed)